Flag Weather past 2 weeks in San Luis Obispo, California, U.S.A.

Now
76 °F

Sunny.


Feels Like: 76 °F
Forecast: 44 / 70 °F
Wind: 9 mph from North

Location: San Luis Obispo County-Mc Chesney Field

Current Time: Nov 24, 2014 at 3:01:39 PM

Latest Report: Nov 24, 2014 at 1:56 PM


Visibility: 10 mi

Pressure: 30.24 "Hg

Humidity: 14%

Dew point: 24 °F

Location of San Luis ObispoLocation

Historic Weather in San Luis Obispo — Graph

°F

San Luis Obispo temperature yesterday

Maximum temperature yesterday: 71 °F (at 1:56 PM)
Minimum temperature yesterday: 51 °F (at 11:56 PM)
Average temperature yesterday: 60 °F

Past Weeks' High & Low Weather Summary

 TemperatureHumidityPressure
High77 °F (Nov 18, 1:56 PM)100% (Nov 9, 9:56 PM)30.32 "Hg (Nov 9, 9:56 PM)
Low45 °F (Nov 24, 3:56 AM)12% (Nov 18, 1:56 PM)29.82 "Hg (Nov 10, 12:56 AM)
Average59 °F72%30.06 "Hg
* Reported Nov 9 1:56 PM — Nov 24 1:56 PM, San Luis Obispo, Weather by CustomWeather, © 2014

Note: Actual official high and low records may vary slightly from our data, if they occured in-between our weather recording intervals... More about our weather records

Advertising

San Luis Obispo weather history for previous 24 hours

 ConditionsComfort  
Time TempWeatherWind HumidityBarometerVisibility
1:56 PM
Nov 24
76 °FSunny.9 mph14%30.24 "Hg10 mi
12:56 PM74 °FSunny.No wind21%30.26 "Hg10 mi
11:56 AM69 °FSunny.8 mph32%30.27 "Hg10 mi
10:56 AM67 °FSunny.9 mph36%30.31 "Hg10 mi
9:56 AM64 °FSunny.16 mph40%30.32 "Hg10 mi
8:56 AM60 °FSunny.17 mph49%30.30 "Hg10 mi
7:56 AM57 °FSunny.No wind41%30.28 "Hg10 mi
6:56 AM51 °FSunny.8 mph46%30.27 "Hg10 mi
5:56 AM52 °FClear.3 mph47%30.24 "Hg10 mi
4:56 AM45 °FClear.No wind63%30.23 "Hg10 mi
3:56 AM45 °FClear.8 mph63%30.23 "Hg10 mi
2:56 AM46 °FClear.No wind61%30.24 "Hg10 mi
1:56 AM47 °FClear.3 mph59%30.24 "Hg10 mi
12:56 AM51 °FClear.3 mph50%30.24 "Hg10 mi
11:56 PM
Nov 23
51 °FClear.5 mph52%30.24 "Hg10 mi
10:56 PM55 °FClear.3 mph45%30.24 "Hg10 mi
9:56 PM57 °FClear.7 mph44%30.23 "Hg10 mi
8:56 PM58 °FClear.5 mph41%30.23 "Hg10 mi
7:56 PM57 °FClear.No wind42%30.22 "Hg10 mi
6:56 PM57 °FClear.3 mph44%30.21 "Hg10 mi
5:56 PM60 °FClear.No wind38%30.20 "Hg10 mi
4:56 PM65 °FClear.No wind29%30.20 "Hg10 mi
3:56 PM69 °FSunny.8 mph24%30.19 "Hg10 mi
Weather by CustomWeather, © 2014

See weather overviewHow to use our weather pages